Wind_Speed
16 12 9 5 8 7 3 9 3 6 9 7 3 5 7 8 11 17 23 31 36 38 41 38 38 33 30 28 29 29 31 22 19 21 21 22 16 17 17 14 9 5 7 7 6 4 6 8 6
17 14 7 9 6 8 6 7 6 6 4 3 3 6 8 11 14 19 24 31 37 37 39 38 38 30 29 26 30 33 33 25 21 27 24 24 16 18 14 14 12 7 8 7 9 7 5 5 4
18 13 4 15 15 12 10 9 8 7 4 4 5 6 10 13 19 24 26 30 36 38 37 38 36 30 31 29 28 32 32 26 23 23 21 20 19 17 16 14 13 9 7 6 6 6 6 3 2
19 14 5 10 7 8 11 14 4 9 8 12 10 9 14 18 21 23 27 32 35 37 35 38 35 32 32 33 30 33 34 34 28 23 20 25 22 17 18 17 15 9 7 8 6 4 4 2 3
23 15 10 14 12 9 4 9 3 12 13 13 12 9 15 20 22 24 29 32 34 36 35 37 34 33 32 33 35 35 36 34 30 25 25 30 27 21 20 18 18 12 8 9 10 7 6 3 2
26 24 20 18 15 14 17 14 13 14 14 13 10 10 17 20 23 26 31 29 33 35 34 36 32 33 33 33 36 37 36 36 32 31 34 33 30 23 17 18 18 12 7 12 14 14 10 7 5
27 28 23 22 24 21 20 20 12 11 14 15 10 14 20 23 27 26 30 28 32 33 34 34 31 30 32 35 36 37 37 34 36 36 37 31 30 25 19 11 11 9 4 13 13 14 13 10 8
29 30 33 28 24 27 25 19 16 20 15 19 12 16 21 26 27 26 26 27 30 33 34 32 29 28 31 33 36 38 40 42 40 43 39 32 31 27 22 18 12 9 6 9 9 9 8 6 6
35 31 31 30 27 25 26 28 23 18 15 19 16 17 24 25 25 23 26 26 29 31 32 30 27 27 30 32 34 38 39 40 42 45 39 35 34 35 28 27 18 16 5 6 6 5 2 2 3
34 36 31 23 20 28 29 22 19 15 18 21 17 17 23 25 26 26 24 23 28 29 30 27 25 26 29 29 32 38 41 42 45 41 39 38 37 35 34 32 25 14 14 11 12 7 3 0 2
35 36 35 31 26 24 33 26 19 16 15 19 18 15 20 24 24 24 22 21 27 25 27 24 22 23 25 26 30 36 41 41 49 44 40 40 39 41 36 37 36 30 22 19 19 17 14 10 6
42 41 37 34 33 29 30 29 24 16 18 20 14 16 21 24 20 19 20 22 25 23 24 21 19 20 22 25 28 35 40 42 46 43 40 40 43 46 46 43 41 41 38 30 18 11 7 10 10
46 44 43 39 38 34 31 29 29 22 18 20 20 20 31 26 23 19 20 21 22 20 21 18 16 17 20 23 27 34 37 41 45 43 44 39 41 43 48 46 43 42 39 33 30 26 24 23 21
53 46 48 46 47 40 35 32 30 27 23 27 26 30 33 22 22 20 19 19 18 17 19 15 13 13 17 21 25 32 37 38 44 44 44 41 38 40 42 44 42 42 41 39 36 33 30 28 27
58 51 52 49 48 44 37 39 36 33 25 29 35 31 31 20 20 19 19 17 14 15 16 13 9 11 14 19 23 29 35 37 42 45 44 46 40 36 35 36 37 37 37 35 33 30 28 27 27
59 58 55 53 49 48 44 45 47 43 34 34 36 31 26 21 18 18 19 16 11 13 14 10 7 8 11 17 21 25 32 35 39 42 48 47 45 43 41 38 37 37 35 33 29 28 27 27 28
59 60 59 58 55 54 54 53 50 47 43 40 38 35 25 21 20 18 14 14 11 12 11 6 2 6 9 14 19 22 28 30 35 40 45 51 49 46 43 42 39 37 35 34 32 30 28 29 28
60 61 63 64 60 60 58 58 56 51 46 40 36 36 27 23 21 20 14 13 11 14 11 5 2 4 6 12 15 19 26 25 29 33 38 42 42 43 48 47 45 44 42 38 36 35 34 33 32
60 58 61 63 60 57 58 60 57 50 42 36 34 36 29 24 24 23 18 13 11 17 11 7 5 5 3 9 12 14 23 26 29 27 32 37 39 39 38 40 43 45 46 43 40 36 37 37 37
61 61 56 55 57 57 57 55 52 47 43 39 35 35 31 26 26 24 22 20 17 18 14 8 9 7 2 5 8 11 18 19 22 26 27 31 34 35 37 38 38 39 39 40 41 42 43 40 34
64 62 59 58 58 57 56 57 49 48 43 41 36 35 35 31 28 24 15 10 12 14 13 11 12 10 4 2 5 9 15 16 19 19 25 29 32 33 33 35 36 37 38 37 36 38 40 43 45
64 66 62 59 59 59 56 55 51 48 46 42 40 36 37 34 31 28 24 14 10 12 16 13 16 14 7 3 4 9 15 20 21 22 25 29 31 31 32 34 35 36 37 37 39 39 37 37 40
58 64 64 61 59 57 56 52 54 51 49 44 41 39 37 36 32 31 32 25 22 18 17 17 19 16 11 7 6 9 14 16 21 21 23 26 27 29 31 34 36 36 37 37 38 37 38 38 34
50 55 59 60 60 58 61 57 56 55 48 44 41 39 38 38 34 32 32 27 27 20 20 23 23 19 15 11 8 8 11 13 16 16 18 21 24 26 28 32 35 37 39 40 40 39 40 40 39
44 45 48 51 55 58 60 57 58 55 48 46 44 41 41 39 37 35 33 30 31 28 25 28 26 23 20 15 11 9 8 10 11 12 14 17 21 23 26 29 33 36 38 40 41 42 42 41 41
45 46 44 44 45 56 52 53 56 50 48 48 45 41 40 39 38 35 31 28 29 29 28 30 30 28 24 19 15 12 8 7 7 8 11 14 17 19 22 26 31 34 37 40 41 42 42 42 40
45 44 45 46 49 53 46 50 46 44 44 42 42 39 39 40 35 36 31 27 28 28 30 31 32 32 27 22 19 16 11 7 3 2 6 9 13 16 20 25 30 33 36 39 41 42 42 43 43
49 49 46 42 47 43 44 45 40 38 37 40 38 36 35 35 36 36 34 30 30 31 29 33 35 34 29 24 21 19 14 9 6 3 3 6 10 14 18 23 28 33 36 38 41 43 42 43 45
57 49 42 43 44 42 42 41 42 42 41 39 36 34 33 33 35 35 33 32 31 32 34 39 39 36 33 29 26 22 17 13 10 7 6 7 10 13 17 22 27 30 34 38 40 42 43 44 47
63 56 51 44 44 41 43 45 45 45 40 37 37 34 31 31 31 31 28 30 33 36 36 43 42 40 37 32 28 25 21 16 14 12 11 9 10 14 18 22 26 30 34 37 39 41 42 43 45
Wind_Direction
198 196 169 217 127 167 271 307 243 177 175 156 128 352 22 10 351 1 357 348 350 354 355 4 7 7 6 11 20 16 13 12 34 30 29 27 24 27 31 19 21 349 257 279 281 302 241 239 254
209 211 192 171 227 228 249 243 245 193 184 154 110 354 344 339 336 338 348 344 349 352 356 3 10 9 7 7 17 21 20 20 14 5 7 19 18 6 6 10 8 348 346 308 287 292 260 235 238
208 226 242 165 169 215 288 279 219 208 266 311 337 360 336 339 337 339 343 343 344 350 358 6 11 9 6 7 9 12 18 14 6 360 5 12 8 360 346 334 331 329 308 312 299 265 197 205 262
203 215 231 176 180 251 253 243 271 261 302 325 329 341 342 334 338 343 344 342 347 352 360 8 10 11 8 10 13 14 12 13 6 4 26 8 354 341 330 314 314 312 274 257 259 219 205 206 224
218 226 218 201 231 236 252 274 285 305 300 315 328 317 327 325 330 332 336 343 348 353 1 9 12 12 10 13 13 14 13 13 17 22 8 359 351 337 320 318 314 277 253 240 233 221 217 232 217
226 216 247 223 216 242 243 268 287 308 285 293 307 300 310 312 318 331 338 345 352 357 3 10 13 14 11 15 15 14 11 10 16 12 358 347 337 324 316 316 311 297 254 225 220 223 223 233 231
227 231 212 207 207 228 239 261 274 306 293 273 282 287 300 312 317 330 335 345 352 360 3 12 14 16 15 18 19 17 13 12 9 7 360 348 351 358 356 343 323 318 266 221 220 224 228 225 222
215 213 215 207 215 225 237 250 262 286 287 257 269 296 300 308 319 327 332 343 349 359 2 12 17 17 19 20 21 20 24 28 22 13 7 11 20 27 26 34 42 72 143 198 215 224 234 243 238
208 211 216 208 218 232 236 245 263 251 257 252 257 305 301 309 317 327 332 343 348 357 360 12 19 20 22 22 21 24 25 24 11 9 19 31 37 37 40 49 67 94 94 127 173 185 206 262 312
209 209 215 210 219 225 230 238 237 247 238 254 265 319 306 303 316 321 329 346 349 356 359 12 20 23 24 20 22 28 29 26 23 23 32 41 41 41 45 56 61 86 76 56 99 113 125 18 343
208 211 208 208 201 212 221 237 232 246 263 258 264 307 306 311 317 316 322 343 347 356 0 13 19 26 24 18 20 24 26 30 28 30 40 45 48 48 50 58 61 67 74 75 66 64 67 58 36
212 208 213 205 208 218 231 235 247 238 248 256 269 309 322 315 318 313 324 337 342 352 2 14 18 25 22 17 20 26 31 33 30 34 46 52 54 54 59 57 59 64 68 71 79 91 64 37 13
230 214 210 209 209 221 217 230 243 238 254 258 271 307 316 313 312 315 320 332 337 345 1 12 19 23 20 15 22 30 36 34 33 39 45 53 53 53 56 60 60 61 59 62 64 66 66 64 62
231 226 216 216 217 222 227 234 231 232 255 257 266 277 301 304 304 310 315 327 329 338 357 11 20 22 19 15 21 33 36 36 39 45 48 53 55 55 54 58 59 61 62 65 68 70 70 70 73
229 228 216 217 219 225 221 230 233 235 256 257 261 266 289 284 293 300 303 316 320 331 351 5 18 14 17 17 20 35 39 43 47 48 51 54 55 58 58 58 59 59 61 64 64 62 59 55 51
229 228 225 216 215 218 225 234 235 237 254 259 266 270 273 271 282 292 292 299 308 320 344 357 13 358 11 18 23 38 47 49 52 53 53 55 57 56 53 54 55 57 58 61 60 54 47 41 37
226 222 225 227 222 226 229 230 228 240 252 256 261 261 257 258 268 277 292 283 289 302 332 347 354 331 6 18 28 44 53 51 53 55 57 58 59 60 59 59 59 57 55 55 54 52 46 39 35
226 224 225 228 229 231 234 231 236 242 252 253 258 253 250 250 259 263 270 273 278 289 319 318 260 296 354 18 30 52 57 53 53 52 56 58 58 57 58 61 62 59 57 56 55 51 47 46 44
226 225 226 231 233 234 231 231 237 246 248 252 257 250 250 253 259 261 259 257 279 283 295 289 238 240 328 15 31 58 65 60 54 52 52 56 56 53 51 54 56 59 58 54 52 51 49 46 46
224 225 228 232 235 233 232 235 242 248 250 252 251 249 251 252 257 266 261 246 254 270 272 252 237 222 252 26 33 62 72 66 51 50 50 54 53 52 52 54 52 49 50 49 49 48 45 42 39
222 224 224 230 233 235 234 239 240 248 251 251 249 247 246 247 250 257 228 208 243 261 262 237 223 222 211 73 49 69 75 62 52 59 54 53 54 51 49 49 50 52 52 46 41 41 40 39 36
222 221 225 227 232 235 237 243 245 247 248 248 248 246 246 242 249 240 235 239 246 270 256 231 216 213 203 181 95 86 82 76 67 61 59 55 53 51 48 47 45 44 46 48 45 40 34 31 32
226 224 224 228 232 238 238 239 245 243 244 243 244 244 242 241 243 246 242 246 264 262 256 228 215 207 205 206 140 114 96 81 76 68 64 59 53 50 45 45 44 40 38 39 40 39 35 36 31
227 227 227 228 230 233 235 235 241 244 244 244 244 243 242 243 242 236 244 243 257 251 230 219 214 204 207 212 180 145 112 93 81 70 60 54 51 42 38 37 37 35 33 34 31 32 31 29 28
227 227 227 226 228 228 230 232 235 241 242 242 240 239 238 237 241 238 236 240 249 247 229 212 210 204 208 211 204 173 138 111 92 72 53 45 42 33 28 29 28 29 28 27 25 26 25 25 23
231 227 225 222 223 232 230 232 236 239 239 243 243 239 237 236 236 232 233 241 242 252 237 218 207 204 208 206 210 195 173 144 104 73 53 39 34 27 19 21 24 21 20 21 20 21 20 18 19
233 231 227 224 225 228 225 228 230 231 234 236 239 242 238 234 230 227 222 236 246 235 225 217 210 206 205 210 210 212 197 186 159 68 46 28 23 18 12 12 17 17 14 15 12 15 17 12 10
228 232 228 225 229 229 228 229 223 223 231 234 233 230 230 232 228 224 224 223 228 218 216 211 208 211 209 212 213 213 211 211 214 252 339 3 13 10 5 7 11 11 11 10 9 10 13 8 7
226 231 232 229 230 231 230 230 226 223 222 221 222 226 222 225 222 226 228 220 220 217 205 205 208 208 213 214 214 218 216 225 240 258 291 332 352 353 353 0 6 9 7 8 5 7 10 5 5
223 223 227 226 228 225 223 235 237 231 227 224 214 214 216 215 208 209 217 217 215 210 203 202 206 210 212 218 223 223 221 226 244 260 278 305 330 341 343 352 357 1 3 4 2 5 6 4 3
Height
11008 11009 11010 11010 11010 11011 11010 11010 11010 11009 11009 11009 11010 11011 11010 11008 11005 11003 11000 10996 10989 10984 10978 10972 10967 10963 10958 10953 10947 10942 10938 10934 10932 10929 10928 10926 10924 10922 10919 10917 10915 10915 10915 10916 10916 10917 10917 10919 10919
11008 11009 11010 11010 11010 11008 11011 11011 11011 11012 11013 11012 11011 11012 11010 11008 11005 11003 11001 10995 10990 10984 10978 10972 10967 10964 10960 10955 10950 10945 10941 10937 10933 10929 10926 10924 10922 10921 10918 10915 10914 10913 10915 10915 10915 10916 10916 10916 10918
11006 11008 11009 11009 11011 11010 11010 11012 11013 11014 11014 11015 11013 11013 11011 11009 11006 11004 11000 10995 10990 10984 10978 10972 10968 10964 10960 10956 10951 10947 10943 10939 10934 10930 10927 10924 10921 10918 10916 10913 10910 10912 10912 10913 10913 10913 10914 10915 10917
11005 11008 11008 11009 11011 11011 11012 11014 11014 11015 11017 11017 11016 11015 11012 11009 11007 11003 10998 10994 10989 10984 10977 10972 10968 10965 10961 10956 10951 10947 10943 10938 10932 10928 10925 10922 10919 10916 10912 10908 10908 10908 10908 10908 10910 10911 10913 10914 10916
11005 11006 11009 11010 11009 11010 11010 11014 11015 11016 11017 11018 11016 11015 11013 11010 11007 11003 10999 10995 10989 10984 10979 10973 10970 10965 10962 10958 10952 10947 10943 10938 10933 10929 10925 10920 10915 10911 10908 10905 10904 10902 10903 10905 10906 10908 10910 10913 10915
11005 11005 11008 11009 11009 11010 11011 11013 11015 11017 11017 11017 11016 11016 11013 11009 11006 11004 11001 10996 10991 10986 10979 10974 10971 10967 10962 10958 10953 10948 10943 10937 10933 10929 10924 10916 10910 10906 10902 10901 10899 10899 10900 10901 10903 10906 10910 10912 10914
11002 11003 11006 11006 11007 11009 11010 11011 11014 11017 11017 11017 11016 11015 11012 11010 11007 11005 11001 10996 10991 10987 10981 10976 10974 10969 10964 10961 10956 10950 10944 10939 10935 10931 10922 10913 10906 10900 10897 10896 10897 10896 10897 10896 10900 10904 10908 10910 10913
10997 11000 11003 11002 11004 11006 11009 11011 11012 11015 11016 11016 11015 11014 11013 11010 11008 11005 11002 10998 10992 10988 10983 10979 10977 10972 10967 10964 10960 10954 10946 10942 10937 10932 10920 10912 10906 10901 10896 10896 10893 10893 10892 10895 10900 10904 10907 10910 10913
10994 10998 11000 11001 11002 11005 11007 11009 11011 11012 11013 11014 11015 11014 11012 11010 11008 11005 11001 10998 10993 10990 10985 10981 10980 10975 10971 10967 10964 10958 10950 10945 10938 10929 10921 10914 10907 10903 10898 10896 10893 10892 10891 10898 10901 10905 10908 10910 10912
10991 10993 10996 10996 11000 11002 11004 11007 11009 11010 11011 11013 11014 11014 11012 11011 11008 11005 11002 10999 10994 10991 10988 10984 10982 10978 10974 10972 10968 10962 10956 10949 10942 10931 10923 10916 10911 10907 10903 10899 10897 10896 10897 10899 10903 10907 10910 10912 10913
10987 10989 10991 10994 10997 10999 11002 11005 11008 11008 11011 11013 11014 11013 11014 11012 11009 11006 11003 11001 10996 10992 10990 10986 10984 10982 10979 10976 10972 10968 10961 10954 10945 10935 10927 10921 10919 10915 10909 10905 10903 10902 10903 10905 10906 10909 10912 10914 10915
10979 10984 10987 10989 10994 10996 10998 11001 11005 11005 11009 11012 11013 11012 11013 11011 11009 11006 11004 11002 10998 10994 10992 10989 10986 10984 10983 10980 10976 10971 10965 10959 10950 10941 10934 10930 10926 10924 10918 10912 10911 10910 10910 10910 10912 10914 10915 10916 10916
10971 10979 10982 10986 10989 10992 10994 10999 11002 11004 11006 11009 11010 11011 11012 11012 11010 11007 11004 11003 11000 10997 10993 10992 10990 10987 10986 10984 10981 10976 10970 10965 10959 10949 10941 10936 10934 10930 10926 10922 10919 10917 10916 10915 10917 10919 10920 10920 10919
10962 10971 10976 10980 10984 10987 10990 10993 10998 11000 11003 11006 11008 11009 11011 11011 11009 11007 11005 11004 11001 10999 10995 10994 10992 10991 10989 10987 10985 10980 10975 10971 10965 10955 10948 10942 10939 10936 10933 10930 10930 10928 10926 10925 10925 10926 10926 10925 10925
10954 10962 10969 10973 10977 10982 10985 10989 10992 10996 10999 11002 11004 11007 11009 11009 11008 11008 11006 11005 11002 11000 10997 10995 10994 10993 10993 10991 10989 10984 10980 10976 10970 10964 10956 10949 10946 10944 10943 10938 10937 10935 10934 10933 10932 10932 10931 10931 10929
10945 10952 10960 10967 10970 10974 10979 10982 10985 10989 10995 10998 11001 11004 11007 11008 11007 11006 11004 11004 11002 11001 10999 10997 10995 10996 10994 10993 10992 10988 10983 10980 10976 10972 10965 10957 10953 10951 10948 10944 10942 10941 10940 10939 10938 10936 10935 10933 10931
10934 10941 10950 10958 10965 10967 10972 10976 10981 10986 10991 10995 10998 11001 11003 11004 11005 11004 11002 11002 11002 11002 11001 10999 10997 10998 10996 10996 10994 10991 10986 10984 10981 10977 10971 10965 10962 10960 10956 10953 10950 10948 10946 10943 10940 10939 10938 10936 10933
10926 10933 10938 10944 10954 10961 10967 10972 10976 10982 10987 10991 10993 10996 10999 10999 11001 11002 11001 11000 11000 11001 11001 11001 11000 10999 10998 10998 10997 10994 10990 10988 10986 10983 10979 10974 10971 10970 10965 10961 10956 10954 10951 10948 10945 10944 10941 10938 10935
10916 10923 10926 10933 10943 10949 10957 10960 10969 10975 10981 10985 10988 10991 10995 10998 10998 11000 11000 10999 10999 11000 11000 11001 11002 11001 11000 10999 10999 10996 10993 10992 10990 10988 10984 10979 10977 10975 10971 10967 10964 10961 10957 10954 10951 10948 10944 10940 10937
10907 10911 10914 10923 10930 10938 10947 10953 10960 10967 10974 10979 10982 10986 10990 10993 10995 10998 10997 10995 10996 10999 10999 11000 11002 11002 11001 11001 11001 10998 10995 10994 10993 10992 10989 10984 10981 10979 10978 10973 10968 10963 10960 10958 10955 10950 10946 10942 10938
10897 10901 10906 10911 10921 10929 10937 10940 10955 10962 10967 10971 10975 10979 10984 10987 10990 10994 10992 10990 10994 10996 10998 10999 11000 11001 11001 11002 11003 11001 10998 10996 10995 10995 10992 10988 10985 10983 10982 10978 10974 10970 10965 10961 10957 10953 10949 10944 10939
10887 10888 10900 10907 10911 10919 10929 10936 10947 10953 10959 10964 10968 10973 10976 10982 10986 10988 10989 10989 10992 10993 10995 10996 10999 11000 11001 11003 11003 11001 11000 10998 10997 10996 10993 10991 10988 10987 10985 10981 10978 10974 10969 10965 10961 10958 10953 10948 10943
10871 10884 10893 10903 10909 10917 10923 10931 10932 10944 10949 10957 10961 10966 10971 10974 10979 10982 10983 10986 10989 10990 10992 10994 10997 10998 11000 11003 11003 11003 11001 10999 10997 10997 10995 10993 10991 10988 10986 10983 10979 10975 10972 10967 10964 10960 10956 10952 10947
10868 10879 10887 10897 10903 10912 10911 10920 10925 10929 10940 10948 10954 10959 10964 10968 10973 10975 10978 10981 10984 10987 10988 10991 10994 10995 10999 11002 11002 11002 11001 11000 10998 10998 10997 10995 10991 10990 10988 10984 10981 10976 10973 10968 10964 10960 10955 10952 10947
10864 10871 10880 10889 10896 10893 10905 10913 10915 10921 10931 10936 10942 10950 10955 10960 10965 10969 10971 10975 10978 10981 10983 10986 10990 10993 10997 11000 11002 11001 11001 11000 10999 10997 10996 10995 10991 10990 10989 10985 10982 10976 10973 10969 10964 10959 10955 10951 10946
10854 10860 10870 10876 10883 10881 10901 10906 10907 10918 10923 10926 10932 10939 10945 10951 10955 10960 10965 10969 10973 10976 10979 10981 10986 10989 10994 10997 11000 11001 11000 11000 10999 10997 10996 10994 10992 10991 10990 10986 10983 10977 10973 10968 10964 10959 10955 10952 10947
10847 10854 10857 10867 10872 10876 10889 10891 10901 10907 10913 10918 10922 10932 10937 10941 10947 10952 10956 10962 10966 10970 10974 10977 10983 10986 10990 10994 10996 10999 11000 10999 10998 10997 10996 10995 10993 10992 10990 10986 10983 10978 10973 10968 10963 10959 10954 10950 10945
10839 10840 10851 10861 10867 10877 10882 10885 10893 10899 10906 10911 10917 10923 10928 10934 10940 10944 10949 10954 10959 10964 10970 10974 10980 10986 10988 10992 10993 10996 10998 10998 10997 10997 10996 10995 10993 10992 10990 10987 10983 10978 10975 10969 10964 10958 10954 10948 10943
10824 10836 10846 10854 10861 10871 10874 10880 10884 10890 10896 10903 10910 10914 10921 10927 10933 10938 10944 10948 10953 10959 10964 10970 10976 10982 10986 10989 10990 10993 10995 10996 10996 10996 10996 10995 10994 10992 10989 10987 10984 10980 10975 10969 10964 10959 10952 10946 10942
10809 10821 10831 10844 10853 10862 10869 10871 10876 10882 10890 10897 10903 10908 10915 10920 10926 10932 10939 10944 10949 10953 10958 10964 10971 10976 10981 10987 10989 10991 10992 10994 10995 10995 10995 10994 10993 10991 10988 10986 10983 10979 10974 10969 10964 10959 10952 10947 10943